N8HKU-5 Weather Reports


time (UTC)temp
F
wind
direction
speed
knots
gust
knots
rain 1hr
in
rain 24hr
in
rain mn
in
humidity
%
barometer
mb
20260508220234 63 187 0.0 4.3 0.00 0.00 0.00 48 1004.9
20260508215239 63 268 0.9 7.0 0.00 0.00 0.00 49 1004.9
20260508214234 62 254 0.9 8.7 0.00 0.00 0.00 46 1004.9
20260508213234 63 244 0.0 6.1 0.00 0.00 0.00 47 1004.9
20260508212234 64 275 0.9 8.7 0.00 0.00 0.00 46 1005.0
20260508211235 65 207 1.7 6.1 0.00 0.00 0.00 49 1005.0
20260508210234 64 239 0.9 8.7 0.00 0.00 0.00 46 1005.0
20260508204236 64 278 0.9 5.2 0.00 0.00 0.00 44 1005.2
20260508203234 65 268 0.9 7.8 0.00 0.00 0.00 41 1005.3
20260508202236 66 168 0.0 5.2 0.00 0.00 0.00 46 1005.4
20260508201235 64 270 0.9 6.1 0.00 0.00 0.00 52 1005.6
20260508200234 64 251 0.0 0.9 0.00 0.00 0.00 50 1005.8
20260508195239 64 179 0.0 3.5 0.00 0.00 0.00 49 1006.1
20260508194235 64 202 0.9 7.8 0.00 0.00 0.00 49 1006.2
20260508193234 64 253 0.0 5.2 0.00 0.00 0.00 49 1006.4
20260508192235 62 247 0.9 8.7 0.00 0.00 0.00 51 1006.4
20260508191234 62 184 0.9 4.3 0.00 0.00 0.00 51 1006.6
20260508190234 62 176 0.0 5.2 0.00 0.00 0.00 50 1006.9
20260508185234 61 227 0.0 3.5 0.00 0.00 0.00 51 1006.9
20260508184235 61 0 0.0 0.0 0.00 0.00 0.00 47 1007.0
20260508182236 63 248 1.7 9.6 0.00 0.00 0.00 48 1007.3
20260508181234 62 199 0.0 5.2 0.00 0.00 0.00 47 1007.2
20260508180234 61 277 0.9 7.0 0.00 0.00 0.00 51 1007.2
20260508175233 61 275 2.6 7.0 0.00 0.00 0.00 49 1007.6
20260508174234 61 304 0.0 6.1 0.00 0.00 0.00 49 1007.8
20260508173234 61 221 0.9 5.2 0.00 0.00 0.00 50 1008.1
20260508172234 61 303 0.0 2.6 0.00 0.00 0.00 55 1008.2
20260508171233 61 246 0.9 6.1 0.00 0.00 0.00 52 1008.3
20260508170234 62 259 0.0 5.2 0.00 0.00 0.00 49 1008.4
20260508165234 61 18 0.0 3.5 0.00 0.00 0.00 52 1008.5
20260508164234 60 248 0.0 1.7 0.00 0.00 0.00 47 1008.7
20260508163233 59 0 0.0 0.9 0.00 0.00 0.00 52 1008.8
20260508162234 59 216 0.0 3.5 0.00 0.00 0.00 47 1009.0
20260508161234 59 276 0.0 2.6 0.00 0.00 0.00 46 1009.1
20260508160233 60 0 0.0 0.0 0.00 0.00 0.00 47 1009.1
20260508155234 59 180 0.0 2.6 0.00 0.00 0.00 50 1009.1
20260508154234 58 179 0.0 2.6 0.00 0.00 0.00 51 1009.2
20260508153233 58 179 0.0 2.6 0.00 0.00 0.00 50 1009.2
20260508152233 57 179 0.0 3.5 0.00 0.00 0.00 51 1009.3
20260508151234 56 0 0.0 0.0 0.00 0.00 0.00 53 1009.3
20260508150233 56 0 0.0 0.0 0.00 0.00 0.00 56 1009.4
20260508145234 56 0 0.0 0.0 0.00 0.00 0.00 58 1009.5
20260508144233 55 0 0.0 0.0 0.00 0.00 0.00 60 1009.6
20260508143235 55 179 0.0 2.6 0.00 0.00 0.00 61 1009.7
20260508142234 54 57 0.0 1.7 0.00 0.00 0.00 71 1009.7
20260508141233 53 0 0.0 0.0 0.00 0.00 0.00 72 1009.8
20260508140233 52 0 0.0 0.0 0.00 0.00 0.00 72 1009.8
20260508135233 51 0 0.0 0.0 0.00 0.00 0.00 75 1009.8
20260508134234 50 0 0.0 0.0 0.00 0.00 0.00 77 1009.9
20260508133233 50 0 0.0 0.0 0.00 0.00 0.00 79 1010.0
20260508132234 49 0 0.0 0.0 0.00 0.00 0.00 81 1009.9
20260508131233 49 0 0.0 0.0 0.00 0.00 0.00 80 1010.0
20260508125233 48 0 0.0 0.0 0.00 0.00 0.00 84 1009.9
20260508124233 47 0 0.0 0.0 0.00 0.00 0.00 86 1009.9
20260508122234 46 0 0.0 0.0 0.00 0.00 0.00 89 1009.8
20260508121233 45 0 0.0 0.0 0.00 0.00 0.00 91 1009.7
20260508120233 44 0 0.0 0.0 0.00 0.00 0.00 92 1009.6
20260508115233 43 0 0.0 0.0 0.00 0.00 0.00 92 1009.6
20260508114234 42 0 0.0 0.0 0.00 0.00 0.00 92 1009.5
20260508113233 41 0 0.0 0.0 0.00 0.00 0.00 92 1009.5
20260508112233 40 0 0.0 0.0 0.00 0.00 0.00 92 1009.3
20260508111233 39 0 0.0 0.0 0.00 0.00 0.00 92 1009.1
20260508110233 38 0 0.0 0.0 0.00 0.00 0.00 92 1009.0
20260508105233 37 0 0.0 0.0 0.00 0.00 0.00 92 1009.0
20260508104234 37 0 0.0 0.0 0.00 0.00 0.00 92 1009.0
20260508103233 38 0 0.0 0.0 0.00 0.00 0.00 92 1008.8
20260508102233 38 0 0.0 0.0 0.00 0.00 0.00 92 1008.8
20260508101233 38 0 0.0 0.0 0.00 0.00 0.00 92 1008.8
20260508100233 38 0 0.0 0.0 0.00 0.00 0.00 92 1008.8
20260508095233 38 0 0.0 0.0 0.00 0.00 0.00 92 1008.9
20260508094233 38 0 0.0 0.0 0.00 0.00 0.00 91 1008.9
20260508093233 38 0 0.0 0.0 0.00 0.00 0.00 91 1008.8
20260508092233 38 0 0.0 0.0 0.00 0.00 0.00 91 1008.8
20260508091233 39 0 0.0 0.0 0.00 0.00 0.00 90 1008.9
20260508090233 39 0 0.0 0.0 0.00 0.00 0.00 90 1008.9
20260508085233 40 0 0.0 0.0 0.00 0.00 0.00 88 1008.9
20260508084233 41 0 0.0 0.0 0.00 0.00 0.00 88 1008.9
20260508083233 42 0 0.0 0.0 0.00 0.00 0.00 87 1009.0
20260508082233 43 0 0.0 0.0 0.00 0.00 0.00 86 1008.9
20260508081233 44 0 0.0 0.0 0.00 0.00 0.00 86 1009.0
20260508080233 44 0 0.0 0.0 0.00 0.00 0.00 85 1008.9
20260508075235 44 0 0.0 0.0 0.00 0.00 0.00 85 1009.2
20260508074233 44 0 0.0 0.0 0.00 0.00 0.00 85 1009.2
20260508073233 44 0 0.0 0.0 0.00 0.00 0.00 86 1009.2
20260508072233 43 0 0.0 0.0 0.00 0.00 0.00 87 1009.2
20260508071233 42 0 0.0 0.0 0.00 0.00 0.00 87 1009.2
20260508070233 42 0 0.0 0.0 0.00 0.00 0.00 87 1009.3
20260508065233 42 0 0.0 0.0 0.00 0.00 0.00 87 1009.4
20260508064233 42 0 0.0 0.0 0.00 0.00 0.00 85 1009.4
20260508063233 42 0 0.0 0.0 0.00 0.00 0.00 84 1009.4
20260508062233 43 0 0.0 0.0 0.00 0.00 0.00 84 1009.4
20260508061233 43 0 0.0 0.0 0.00 0.00 0.00 84 1009.4
20260508060234 42 0 0.0 0.0 0.00 0.00 0.00 85 1009.3
20260508055234 42 0 0.0 0.0 0.00 0.00 0.00 85 1009.3
20260508054234 42 0 0.0 0.0 0.00 0.00 0.00 85 1009.5
20260508053234 42 0 0.0 0.0 0.00 0.00 0.00 84 1009.5
20260508052235 42 0 0.0 0.0 0.00 0.00 0.00 84 1009.6
20260508051235 42 0 0.0 0.0 0.00 0.00 0.00 81 1009.6
20260508050234 43 0 0.0 0.0 0.00 0.00 0.00 79 1009.6
20260508045234 44 0 0.0 0.0 0.00 0.00 0.00 77 1009.5
20260508044234 45 0 0.0 0.0 0.00 0.00 0.00 77 1009.5
20260508043235 46 0 0.0 0.0 0.00 0.00 0.00 76 1009.5
20260508042234 46 0 0.0 0.0 0.00 0.00 0.00 74 1009.4
20260508041234 47 0 0.0 0.0 0.00 0.00 0.00 73 1009.4
20260508040234 47 0 0.0 0.0 0.00 0.00 0.00 73 1009.5
20260508035234 47 0 0.0 0.0 0.00 0.00 0.00 72 1009.5
20260508034234 48 0 0.0 0.0 0.00 0.00 0.00 72 1009.6
20260508033235 48 0 0.0 0.0 0.00 0.00 0.00 71 1009.6
20260508032234 48 0 0.0 0.0 0.00 0.00 0.00 70 1009.7
20260508031234 49 0 0.0 0.0 0.00 0.00 0.00 69 1009.8
20260508030234 49 0 0.0 0.0 0.00 0.00 0.00 68 1010.0
20260508025237 49 0 0.0 0.0 0.00 0.00 0.00 67 1010.0
20260508024234 49 0 0.0 0.0 0.00 0.00 0.00 66 1010.0
20260508023234 50 0 0.0 0.0 0.00 0.00 0.00 65 1009.8
20260508022234 50 0 0.0 0.0 0.00 0.00 0.00 62 1009.9
20260508021234 51 0 0.0 0.0 0.00 0.00 0.00 57 1009.9
20260508020234 51 260 0.0 2.6 0.00 0.00 0.00 56 1009.8
20260508014234 50 0 0.0 0.0 0.00 0.00 0.00 58 1009.6
20260508013233 49 181 0.0 4.3 0.00 0.00 0.00 57 1009.5
20260508012234 48 0 0.0 0.0 0.00 0.00 0.00 64 1009.3
20260508011234 48 0 0.0 0.0 0.00 0.00 0.00 60 1009.0
20260508010234 48 0 0.0 0.0 0.00 0.00 0.00 59 1009.0
20260508005234 48 0 0.0 0.0 0.00 0.00 0.00 57 1009.0
20260508004235 49 0 0.0 0.0 0.00 0.00 0.00 54 1008.9
20260508003233 51 0 0.0 0.0 0.00 0.00 0.00 50 1008.8
20260508002233 52 0 0.0 0.0 0.00 0.00 0.00 48 1008.8
20260508001234 53 0 0.0 0.0 0.00 0.00 0.00 47 1008.8
20260508000235 54 272 0.0 3.5 0.00 0.00 0.00 45 1008.9
20260507235234 54 276 0.9 5.2 0.00 0.00 0.00 44 1008.8
20260507234234 54 263 0.9 7.0 0.00 0.00 0.00 43 1008.8
20260507233233 55 264 0.0 6.1 0.00 0.00 0.00 42 1008.9
20260507232234 54 0 0.0 0.0 0.00 0.00 0.00 44 1008.8
20260507231234 54 270 0.0 4.3 0.00 0.00 0.00 44 1008.9
20260507230233 54 0 0.0 0.0 0.00 0.00 0.00 43 1008.9
20260507225233 54 242 0.0 3.5 0.00 0.00 0.00 43 1009.0
20260507224233 54 265 0.9 7.8 0.00 0.00 0.00 41 1009.1
20260507223233 55 293 0.0 5.2 0.00 0.00 0.00 41 1009.1
20260507222233 56 263 0.0 2.6 0.00 0.00 0.00 41 1009.1
20260507221233 56 272 1.7 8.7 0.00 0.00 0.00 42 1009.1